Regional Weather Roundup
Issued by NWS

Home | Current Version | Previous Version | Graphics & Text | Print | Product List | Glossary On
Versions: 1 2 3 4 5 6 7 8 9 10 11 12 13 14 15 16 17 18 19 20 21 22 23 24 25 26 27 28 29 30 31 32 33 34 35 36 37 38 39 40 41 42 43 44 45 46 47 48 49 50
947
ASUS44 KMEG 101710
RWRTN
TENNESSEE HOURLY STATE WEATHER ROUNDUP
NATIONAL WEATHER SERVICE MEMPHIS TN
1100 AM CST WED FEB 10 2016

TNZ002-004-019-021-049-052-054-088>092-101800-
WEST TENNESSEE

CITY           SKY/WX    TMP DP  RH WIND       PRES   REMARKS
MEMPHIS INTL   MOSUNNY   35   7  31 NW8       30.29S WCI  29
NWS MEMPHIS      N/A     31 N/A N/A MISG        N/A
JACKSON        SUNNY     29   7  39 NW9       30.28S WCI  20
DYERSBURG      SUNNY     27   9  46 W6        30.29F WCI  20
UNION CITY     SUNNY     23   9  54 NW7       30.24F WCI  15
PARIS          SUNNY     23   9  54 SW8       30.23S WCI  14
$$

TNZ008-025-027-028-033-062-065-066-101800-
NORTH MIDDLE TENNESSEE

CITY           SKY/WX    TMP DP  RH WIND       PRES   REMARKS
NASHVILLE      PTSUNNY   24   9  52 VRB6G17   30.21S WCI  17
CLARKSVILLE    SUNNY     22  10  60 W8        30.22R WCI  12
SMYRNA         PTSUNNY   24  11  57 NW13      30.23S WCI  12
COOKEVILLE     MOSUNNY   23  10  58 W10       30.13S WCI  12
CROSSVILLE     MOSUNNY   19   5  54 W22G30    30.06R WCI   2
$$

TNZ061-075-076-078-094-096-097-101800-
SOUTH MIDDLE TENNESSEE

CITY           SKY/WX    TMP DP  RH WIND       PRES   REMARKS
FAYETTEVILLE   MOSUNNY   27  12  54 W13       30.19S WCI  16
TULLAHOMA      CLOUDY    23  14  68 NW12      30.17S WCI  12
WINCHESTER     CLOUDY    25  12  58 W9        30.17S WCI  15
MCMINNVILLE    CLOUDY    21  12  68 VRB7      30.16R WCI  13
COLUMBIA       SUNNY     27  12  54 VRB7      30.20R WCI  19
SHELBYVILLE    CLOUDY    27  16  63 W8        30.21R WCI  18
$$

TNZ017-018-042-046-047-101800-
NORTHEAST TENNESSEE

CITY           SKY/WX    TMP DP  RH WIND       PRES   REMARKS
TRI CITIES     FLURRIES  21   9  59 W14G22    30.00S WCI   8
$$

TNZ012-013-036-069-073-074-101800-
CENTRAL EAST TENNESSEE

CITY           SKY/WX    TMP DP  RH WIND       PRES   REMARKS
KNOXVILLE      PTSUNNY   26   8  46 W17G25    30.10F WCI  13
OAK RIDGE      PTSUNNY   26   6  42 W9G18     30.12S WCI  17
GATLINBURG     CLOUDY    21   7  53 W10       30.09S WCI  10
MORRISTOWN     CLOUDY    23   7  50 W17G23    30.04S WCI   9
$$

TNZ083-085-099-101800-
SOUTHEAST TENNESSEE

CITY           SKY/WX    TMP DP  RH WIND       PRES   REMARKS
CHATTANOOGA    FLURRIES  27  10  49 NW10      30.17S WCI  17
$$

SKY/WX REPORTED AS FAIR MEANS FEW OR NO CLOUDS BELOW
12 THOUSAND FEET.





USA.gov is the U.S. government's official web portal to all federal, state and local government web resources and services.